Terminal Aerodrome Forecast
Issued by NWS Raleigh/Durham, NC

Home | Current Version | Previous Version | Text Only | Print | Product List | Glossary On
Versions: 1 2 3 4 5 6 7 8 9 10 11 12 13 14 15 16 17 18 19 20 21 22 23 24 25 26 27 28 29 30 31 32 33 34 35 36 37 38 39 40 41 42 43 44
000
FTUS42 KRAH 041245 AAA
TAFFAY
TAF AMD
KFAY 041245Z 0413/0512 20008KT 1/2SM FG OVC003 WS015/23050KT
      TEMPO 0413/0415 1/4SM FG VV002
     FM041500 22012G22KT 6SM HZ BKN007 OVC012 WS015/24045KT
     FM041600 22015G25KT P6SM BKN015
     FM041800 22018G28KT P6SM SCT040=

USA.gov is the U.S. government's official web portal to all federal, state and local government web resources and services.